Miscellaneous Local Product
Issued by NWS North Platte, NE

Home | Current Version | Previous Version | Graphics & Text | Print | Product List | Glossary On
Versions: 1 2 3 4 5 6 7 8 9 10 11 12 13 14 15 16 17 18 19 20 21 22 23 24 25 26 27 28 29 30 31 32 33 34 35 36 37 38 39 40 41 42 43 44 45 46 47 48 49 50
000
AXUS43 KLBF 240410
MISLBF


WESTERN AND NORTH CENTRAL NEBRASKA HOURLY WEATHER ROUNDUP
NATIONAL WEATHER SERVICE NORTH PLATTE NE
1000 PM CST FRI FEB 23 2018

NOTE: "FAIR" INDICATES FEW OR NO CLOUDS BELOW 12,000 FEET WITH NO
SIGNIFICANT WEATHER AND/OR OBSTRUCTIONS TO VISIBILITY.

NOTE: STATIONS NOT REPORTING VARIABLES SUCH AS SKY/WEATHER OR
PRESSURE ARE PROVIDED BY RAWS AND APRS NETWORKS AND ARE NOT UNDER
NATIONAL WEATHER SERVICE QUALITY CONTROL.

...OBSERVATIONS IN AND NEAR THE EASTERN PANHANDLE OF NEBRASKA...

CITY           SKY/WX    TMP DP  RH WIND       PRES   REMARKS
PINE RIDGE     CLEAR      6   2  83 CALM      30.05F
GORDON         FAIR       1  -3  83 CALM      30.04F
CHADRON        MOCLDY     5   0  79 CALM      30.04F
ALLIANCE       MOCLDY    12  10  92 SE6       30.01F WCI   3
SIDNEY         CLOUDY    22  19  89 SE9       30.00F WCI  12
CRESCENT LAKE    N/A     19  15  85 SE5G13      N/A  WCI  12
$$

...OBSERVATIONS IN NORTHERN NEBRASKA AND FAR SOUTHERN SOUTH DAKOTA...

CITY           SKY/WX    TMP DP  RH WIND       PRES   REMARKS
WINNER         FAIR       8   4  83 SE9       30.19F WCI  -5
VALENTINE      CLEAR      8   5  87 E5        30.13F WCI   0
AINSWORTH      CLEAR      8   6  92 CALM      30.14F FOG
O`NEILL        FOG        7   6  92 CALM      30.21F VSB 1/4
THEDFORD         N/A      9   6  89 CALM      30.12F
BROKEN BOW     MOCLDY     8   5  87 N3        30.15F
ORD            CLEAR     11   8  88 N3        30.18F
ALBION         CLOUDY    13  11  89 N3        30.22F
HALSEY           N/A     12   8  85 E3          N/A
BUTTE            N/A     10   8  90 NE6         N/A  WCI   0
CHAMBERS         N/A      6  -1  71 CALM        N/A
EWING            N/A     10   8  90 CALM        N/A
$$

...OBSERVATIONS IN SOUTHWEST NEBRASKA AND FAR NORTHEAST COLORADO...

CITY           SKY/WX    TMP DP  RH WIND       PRES   REMARKS
WRAY           CLOUDY    28  25  86 E6        30.02R WCI  22
HOLYOKE        CLOUDY    27  21  80 E12       30.03S WCI  16
IMPERIAL       CLOUDY    20  18  92 NE9       30.05F WCI   9
OGALLALA       CLEAR     17  15  88 E5        30.07F WCI  10
NORTH PLATTE   CLOUDY    15  11  83 E6        30.12F WCI   6
MCCOOK         CLOUDY    24  22  91 E14       30.10F WCI  12
LEXINGTON      CLOUDY    23  21  91 E10       30.15F WCI  13
STAPLETON        N/A     10   8  89 CALM        N/A
$$

...OBSERVATIONS IN CENTRAL LINCOLN COUNTY AREA...

CITY           SKY/WX    TMP DP  RH WIND       PRES   REMARKS
N.P. AIRPORT   CLOUDY    15  11  83 E6        30.12F WCI   6
N.P. DOWNTOWN    N/A     14  11  90 E3          N/A
N.P. SOUTHEAST   N/A     13  10  87 NE3         N/A
N.P. HILLCREST   N/A     15  13  90 E12         N/A  WCI   2
$$

...OBSERVATIONS ACROSS THE ROCKIES AND WESTERN HIGH PLAINS...

CITY           SKY/WX    TMP DP  RH WIND       PRES   REMARKS
RAPID CITY     CLEAR     11   2  67 SE13      30.01F WCI  -4
SCOTTSBLUFF    CLOUDY    19  14  81 E3        30.01S
CHEYENNE       LGT SNOW  21  20  96 S13       29.89F VSB 3/4 WCI   9
DENVER         CLOUDY    24  21  88 W12       29.88F FOG     WCI  13
BERTHOUD PASS  MOCLDY     3  -8  60 W10G23    29.74F WCI -12
COPPER MTN     LGT SNOW  10   3  72 W3        29.76S
MONARCH PASS   SNOW       9   5  85 W21       29.85S VSB 1/2 WCI -11
ASPEN          LGT SNOW  19  16  88 CALM      29.85F FOG
LARAMIE        CLOUDY    19  15  84 SE18G29   29.83R WCI   4
CASPER         LGT SNOW  15  13  91 W3        29.90S FOG
$$

...OBSERVATIONS ACROSS THE NORTHERN PLAINS...

CITY           SKY/WX    TMP DP  RH WIND       PRES   REMARKS
BISMARCK       CLEAR      5   2  87 E5        30.16F WCI  -4
FARGO          FAIR       7   3  84 SW10      30.28R WCI  -8
PIERRE         PTCLDY    -4  -6  91 E3        30.19F
SIOUX FALLS    FOG       16  15  96 N8        30.25F VSB 1/4 WCI   5
$$

...OBSERVATIONS ACROSS THE CENTRAL AND SOUTHERN PLAINS...

CITY           SKY/WX    TMP DP  RH WIND       PRES   REMARKS
OMAHA          CLOUDY    22  19  89 NE10      30.29S WCI  11
GRAND ISLAND   CLOUDY    23  19  85 E9        30.21S WCI  13
KANSAS CITY    CLOUDY    33  30  88 NE7       30.20F WCI  27
WICHITA        CLOUDY    33  32  96 NE10      30.09F FOG     WCI  25
DODGE CITY     CLOUDY    29  27  92 E8        30.05S FOG     WCI  21
OKLAHOMA CITY  DRIZZLE   38  38 100 N6        30.04F FOG     WCI  33
DALLAS         CLOUDY    49  47  93 NW8       30.03F
AMARILLO       CLOUDY    34  33  96 SE18      29.93F FOG     WCI  23
$$




USA.gov is the U.S. government's official web portal to all federal, state and local government web resources and services.